| time (UTC) | temp F | wind direction | speed MPH | gust MPH | rain 1hr in | rain 24hr in | rain mn in | humidity % | barometer mb |
| 20260905102100 | 53 | 273 | 0.0 | 0.0 | 0.00 | 0.00 | 0.00 | 94 | 1012.7 |
| 20260905101609 | 53 | 272 | 0.0 | 0.0 | 0.00 | 0.00 | 0.00 | 94 | 1012.7 |
| 20260905101100 | 53 | 273 | 0.0 | 0.0 | 0.00 | 0.00 | 0.00 | 94 | 1012.5 |
| 20260905100602 | 52 | 273 | 0.0 | 0.0 | 0.00 | 0.00 | 0.00 | 94 | 1012.5 |
| 20260905100059 | 52 | 273 | 0.0 | 0.0 | 0.00 | 0.00 | 0.00 | 94 | 1012.4 |
| 20260905095558 | 52 | 273 | 0.0 | 0.0 | 0.00 | 0.00 | 0.00 | 93 | 1012.3 |
| 20260905095058 | 52 | 273 | 0.0 | 0.0 | 0.00 | 0.00 | 0.00 | 93 | 1012.2 |
| 20260905094600 | 52 | 273 | 0.0 | 0.0 | 0.00 | 0.00 | 0.00 | 93 | 1012.2 |
| 20260905094100 | 52 | 273 | 0.0 | 0.0 | 0.00 | 0.00 | 0.00 | 93 | 1012.1 |
| 20260905093559 | 52 | 273 | 0.0 | 0.0 | 0.00 | 0.00 | 0.00 | 93 | 1012.2 |
| 20260905093123 | 52 | 273 | 0.0 | 0.0 | 0.00 | 0.00 | 0.00 | 93 | 1012.2 |
| 20260905092559 | 52 | 273 | 0.0 | 1.0 | 0.00 | 0.00 | 0.00 | 93 | 1012.3 |
| 20260905092059 | 52 | 273 | 0.0 | 1.0 | 0.00 | 0.00 | 0.00 | 93 | 1012.2 |
| 20260905091606 | 52 | 273 | 0.0 | 1.0 | 0.00 | 0.00 | 0.00 | 93 | 1012.2 |
| 20260905091059 | 52 | 273 | 0.0 | 1.0 | 0.00 | 0.00 | 0.00 | 93 | 1012.2 |
| 20260905090558 | 53 | 273 | 0.0 | 2.0 | 0.00 | 0.00 | 0.00 | 93 | 1012.1 |
| 20260905090059 | 53 | 273 | 0.0 | 2.0 | 0.00 | 0.00 | 0.00 | 93 | 1012.1 |
| 20260905085602 | 53 | 272 | 0.0 | 1.0 | 0.00 | 0.00 | 0.00 | 93 | 1012.1 |
| 20260905085058 | 53 | 273 | 1.0 | 2.0 | 0.00 | 0.00 | 0.00 | 93 | 1012.2 |
| 20260905084601 | 53 | 273 | 1.0 | 2.0 | 0.00 | 0.00 | 0.00 | 93 | 1012.2 |
| 20260905084059 | 53 | 273 | 0.0 | 3.0 | 0.00 | 0.00 | 0.00 | 93 | 1012.2 |
| 20260905083559 | 53 | 273 | 0.0 | 4.0 | 0.00 | 0.00 | 0.00 | 93 | 1012.1 |
| 20260905083101 | 53 | 273 | 0.0 | 2.0 | 0.00 | 0.00 | 0.00 | 93 | 1012.1 |
| 20260905082558 | 53 | 272 | 0.0 | 0.0 | 0.00 | 0.00 | 0.00 | 93 | 1012.0 |
| 20260905082058 | 53 | 272 | 0.0 | 0.0 | 0.00 | 0.00 | 0.00 | 93 | 1011.9 |
| 20260905081559 | 53 | 273 | 0.0 | 0.0 | 0.00 | 0.00 | 0.00 | 93 | 1011.9 |
| 20260905081058 | 53 | 273 | 0.0 | 0.0 | 0.00 | 0.00 | 0.00 | 93 | 1011.9 |
| 20260905080557 | 53 | 273 | 0.0 | 0.0 | 0.00 | 0.00 | 0.00 | 93 | 1012.0 |
| 20260905080104 | 53 | 273 | 0.0 | 0.0 | 0.00 | 0.00 | 0.00 | 93 | 1012.0 |
| 20260905075555 | 53 | 273 | 0.0 | 0.0 | 0.00 | 0.00 | 0.00 | 93 | 1012.1 |
| 20260905075056 | 53 | 272 | 0.0 | 1.0 | 0.00 | 0.00 | 0.00 | 93 | 1012.1 |
| 20260905074556 | 53 | 273 | 0.0 | 2.0 | 0.00 | 0.00 | 0.00 | 93 | 1012.1 |
| 20260905074055 | 53 | 273 | 0.0 | 2.0 | 0.00 | 0.00 | 0.00 | 93 | 1012.2 |
| 20260905073559 | 53 | 273 | 0.0 | 2.0 | 0.00 | 0.00 | 0.00 | 93 | 1012.1 |
| 20260905073056 | 53 | 272 | 0.0 | 4.0 | 0.00 | 0.00 | 0.00 | 93 | 1012.2 |
| 20260905072556 | 53 | 274 | 1.0 | 4.0 | 0.00 | 0.00 | 0.00 | 93 | 1012.4 |
| 20260905072055 | 53 | 277 | 1.0 | 3.0 | 0.00 | 0.00 | 0.00 | 93 | 1012.3 |
| 20260905071556 | 53 | 277 | 1.0 | 5.0 | 0.00 | 0.00 | 0.00 | 93 | 1012.2 |
| 20260905071056 | 53 | 272 | 2.0 | 5.0 | 0.00 | 0.00 | 0.00 | 93 | 1012.2 |
| 20260905070555 | 53 | 267 | 3.0 | 5.0 | 0.00 | 0.00 | 0.00 | 93 | 1012.2 |
| 20260905070106 | 53 | 274 | 2.0 | 5.0 | 0.00 | 0.00 | 0.00 | 93 | 1012.1 |
| 20260905065555 | 53 | 266 | 2.0 | 5.0 | 0.00 | 0.00 | 0.00 | 93 | 1012.1 |
| 20260905065054 | 53 | 270 | 3.0 | 5.0 | 0.00 | 0.00 | 0.00 | 93 | 1012.1 |
| 20260905064555 | 53 | 272 | 3.0 | 5.0 | 0.00 | 0.00 | 0.00 | 93 | 1012.1 |
| 20260905064055 | 53 | 258 | 3.0 | 5.0 | 0.00 | 0.00 | 0.00 | 93 | 1012.1 |
| 20260905063555 | 52 | 269 | 3.0 | 5.0 | 0.00 | 0.00 | 0.00 | 93 | 1012.2 |
| 20260905063058 | 52 | 261 | 2.0 | 4.0 | 0.00 | 0.00 | 0.00 | 93 | 1012.2 |
| 20260905062554 | 52 | 261 | 1.0 | 5.0 | 0.00 | 0.00 | 0.00 | 93 | 1012.1 |
| 20260905062053 | 52 | 252 | 2.0 | 5.0 | 0.00 | 0.00 | 0.00 | 93 | 1012.1 |
| 20260905061554 | 52 | 257 | 1.0 | 5.0 | 0.00 | 0.00 | 0.00 | 93 | 1012.1 |
| 20260905061053 | 52 | 276 | 2.0 | 5.0 | 0.00 | 0.00 | 0.00 | 93 | 1012.2 |
| 20260905060552 | 52 | 256 | 2.0 | 5.0 | 0.00 | 0.00 | 0.00 | 93 | 1012.2 |
| 20260905060053 | 52 | 264 | 1.0 | 5.0 | 0.00 | 0.00 | 0.00 | 93 | 1012.1 |
| 20260905055552 | 52 | 258 | 1.0 | 5.0 | 0.00 | 0.00 | 0.00 | 93 | 1012.2 |
| 20260905055052 | 52 | 269 | 1.0 | 2.0 | 0.00 | 0.00 | 0.00 | 92 | 1012.2 |
| 20260905054556 | 52 | 269 | 0.0 | 2.0 | 0.00 | 0.00 | 0.00 | 92 | 1012.2 |
| 20260905054055 | 52 | 259 | 0.0 | 2.0 | 0.00 | 0.00 | 0.00 | 92 | 1012.2 |
| 20260905053552 | 52 | 270 | 1.0 | 4.0 | 0.00 | 0.00 | 0.00 | 92 | 1012.3 |
| 20260905053050 | 52 | 276 | 1.0 | 4.0 | 0.00 | 0.00 | 0.00 | 92 | 1012.2 |
| 20260905052550 | 52 | 274 | 0.0 | 4.0 | 0.00 | 0.00 | 0.00 | 92 | 1012.3 |
| 20260905052050 | 53 | 262 | 1.0 | 3.0 | 0.00 | 0.00 | 0.00 | 92 | 1012.2 |
| 20260905051549 | 53 | 262 | 1.0 | 4.0 | 0.00 | 0.00 | 0.00 | 91 | 1012.3 |
| 20260905051047 | 53 | 273 | 1.0 | 5.0 | 0.00 | 0.00 | 0.00 | 92 | 1012.3 |
| 20260905050547 | 53 | 266 | 3.0 | 5.0 | 0.00 | 0.00 | 0.00 | 92 | 1012.4 |
| 20260905050047 | 53 | 259 | 2.0 | 5.0 | 0.00 | 0.00 | 0.00 | 91 | 1012.4 |
| 20260905045546 | 53 | 255 | 1.0 | 3.0 | 0.00 | 0.00 | 0.00 | 91 | 1012.5 |
| 20260905045045 | 54 | 262 | 1.0 | 3.0 | 0.00 | 0.00 | 0.00 | 92 | 1012.6 |
| 20260905044547 | 54 | 265 | 2.0 | 4.0 | 0.00 | 0.00 | 0.00 | 92 | 1012.6 |
| 20260905044045 | 54 | 274 | 0.0 | 5.0 | 0.00 | 0.00 | 0.00 | 91 | 1012.6 |
| 20260905043545 | 54 | 268 | 1.0 | 5.0 | 0.00 | 0.00 | 0.00 | 91 | 1012.6 |
| 20260905043046 | 54 | 262 | 2.0 | 5.0 | 0.00 | 0.00 | 0.00 | 91 | 1012.6 |
| 20260905042547 | 54 | 257 | 2.0 | 5.0 | 0.00 | 0.00 | 0.00 | 91 | 1012.6 |
| 20260905042043 | 54 | 274 | 3.0 | 5.0 | 0.00 | 0.00 | 0.00 | 91 | 1012.7 |
| 20260905041545 | 54 | 257 | 3.0 | 5.0 | 0.00 | 0.00 | 0.00 | 91 | 1012.7 |
| 20260905041042 | 54 | 251 | 2.0 | 5.0 | 0.00 | 0.00 | 0.00 | 91 | 1012.8 |
| 20260905040542 | 54 | 275 | 2.0 | 5.0 | 0.00 | 0.00 | 0.00 | 91 | 1012.9 |
| 20260905040050 | 54 | 265 | 2.0 | 5.0 | 0.00 | 0.00 | 0.00 | 91 | 1013.1 |
| 20260905035539 | 54 | 261 | 2.0 | 5.0 | 0.00 | 0.00 | 0.00 | 92 | 1013.1 |
| 20260905035039 | 54 | 262 | 2.0 | 5.0 | 0.00 | 0.00 | 0.00 | 92 | 1013.2 |
| 20260905034540 | 54 | 265 | 2.0 | 5.0 | 0.00 | 0.00 | 0.00 | 92 | 1013.2 |
| 20260905034039 | 54 | 279 | 2.0 | 5.0 | 0.00 | 0.00 | 0.00 | 92 | 1013.3 |
| 20260905033538 | 54 | 264 | 3.0 | 5.0 | 0.00 | 0.00 | 0.00 | 92 | 1013.4 |
| 20260905033038 | 54 | 257 | 3.0 | 5.0 | 0.00 | 0.00 | 0.00 | 92 | 1013.4 |
| 20260905032537 | 54 | 274 | 2.0 | 4.0 | 0.00 | 0.00 | 0.00 | 92 | 1013.5 |
| 20260905032036 | 54 | 272 | 2.0 | 5.0 | 0.00 | 0.00 | 0.00 | 92 | 1013.6 |
| 20260905031536 | 54 | 269 | 2.0 | 5.0 | 0.00 | 0.00 | 0.00 | 92 | 1013.6 |
| 20260905031037 | 54 | 254 | 3.0 | 5.0 | 0.00 | 0.00 | 0.00 | 92 | 1013.6 |
| 20260905030536 | 54 | 276 | 3.0 | 4.0 | 0.00 | 0.00 | 0.00 | 91 | 1013.6 |
| 20260905030042 | 54 | 275 | 2.0 | 3.0 | 0.00 | 0.00 | 0.00 | 91 | 1013.7 |
| 20260905025534 | 54 | 251 | 1.0 | 4.0 | 0.00 | 0.00 | 0.00 | 91 | 1013.7 |
| 20260905025033 | 55 | 253 | 1.0 | 4.0 | 0.00 | 0.00 | 0.00 | 91 | 1013.7 |
| 20260905024534 | 55 | 253 | 1.0 | 4.0 | 0.00 | 0.00 | 0.00 | 91 | 1013.7 |
| 20260905024033 | 55 | 254 | 2.0 | 4.0 | 0.00 | 0.00 | 0.00 | 91 | 1013.7 |
| 20260905023532 | 55 | 255 | 1.0 | 3.0 | 0.00 | 0.00 | 0.00 | 91 | 1013.8 |
| 20260905023032 | 55 | 251 | 1.0 | 4.0 | 0.00 | 0.00 | 0.00 | 90 | 1013.8 |
| 20260905022532 | 55 | 255 | 1.0 | 5.0 | 0.00 | 0.00 | 0.00 | 91 | 1013.8 |
| 20260905022032 | 55 | 254 | 1.0 | 5.0 | 0.00 | 0.00 | 0.00 | 91 | 1013.8 |
| 20260905021531 | 55 | 264 | 2.0 | 5.0 | 0.00 | 0.00 | 0.00 | 91 | 1013.9 |
| 20260905021031 | 55 | 255 | 2.0 | 5.0 | 0.00 | 0.00 | 0.00 | 91 | 1013.9 |
| 20260905020531 | 55 | 256 | 2.0 | 6.0 | 0.00 | 0.00 | 0.00 | 91 | 1013.9 |
| 20260905020032 | 55 | 254 | 3.0 | 6.0 | 0.00 | 0.00 | 0.00 | 91 | 1013.8 |
| 20260905015529 | 56 | 237 | 3.0 | 6.0 | 0.00 | 0.00 | 0.00 | 91 | 1013.9 |
| 20260905015030 | 55 | 261 | 3.0 | 6.0 | 0.00 | 0.00 | 0.00 | 91 | 1014.1 |
| 20260905014529 | 56 | 259 | 3.0 | 6.0 | 0.00 | 0.00 | 0.00 | 91 | 1014.1 |
| 20260905014130 | 56 | 264 | 3.0 | 6.0 | 0.00 | 0.00 | 0.00 | 90 | 1014.1 |
| 20260905013532 | 56 | 260 | 1.0 | 5.0 | 0.00 | 0.00 | 0.00 | 90 | 1014.3 |
| 20260905013028 | 56 | 263 | 2.0 | 5.0 | 0.00 | 0.00 | 0.00 | 90 | 1014.2 |
| 20260905012527 | 56 | 265 | 2.0 | 3.0 | 0.00 | 0.00 | 0.00 | 90 | 1014.3 |
| 20260905012026 | 56 | 250 | 1.0 | 5.0 | 0.00 | 0.00 | 0.00 | 90 | 1014.3 |
| 20260905011525 | 56 | 266 | 2.0 | 7.0 | 0.00 | 0.00 | 0.00 | 90 | 1014.4 |
| 20260905011025 | 56 | 259 | 1.0 | 7.0 | 0.00 | 0.00 | 0.00 | 90 | 1014.5 |
| 20260905010525 | 56 | 255 | 3.0 | 6.0 | 0.00 | 0.00 | 0.00 | 89 | 1014.5 |
| 20260905010125 | 56 | 255 | 2.0 | 4.0 | 0.00 | 0.00 | 0.00 | 89 | 1014.5 |
| 20260905005524 | 56 | 250 | 1.0 | 4.0 | 0.00 | 0.00 | 0.00 | 89 | 1014.5 |
| 20260905005025 | 57 | 236 | 1.0 | 6.0 | 0.00 | 0.00 | 0.00 | 89 | 1014.6 |
| 20260905004524 | 57 | 216 | 1.0 | 6.0 | 0.00 | 0.00 | 0.00 | 89 | 1014.6 |
| 20260905004024 | 57 | 237 | 2.0 | 6.0 | 0.00 | 0.00 | 0.00 | 89 | 1014.6 |
| 20260905003528 | 57 | 253 | 2.0 | 6.0 | 0.00 | 0.00 | 0.00 | 89 | 1014.6 |
| 20260905003024 | 57 | 244 | 2.0 | 6.0 | 0.00 | 0.00 | 0.00 | 89 | 1014.6 |
| 20260905002523 | 57 | 261 | 4.0 | 6.0 | 0.00 | 0.00 | 0.00 | 89 | 1014.8 |
| 20260905002024 | 57 | 225 | 3.0 | 6.0 | 0.00 | 0.00 | 0.00 | 89 | 1014.8 |
| 20260905001524 | 57 | 251 | 3.0 | 6.0 | 0.00 | 0.00 | 0.00 | 90 | 1014.8 |
| 20260905001024 | 57 | 235 | 4.0 | 6.0 | 0.00 | 0.00 | 0.00 | 90 | 1014.9 |
| 20260905000523 | 57 | 283 | 4.0 | 6.0 | 0.00 | 0.00 | 0.00 | 90 | 1014.9 |
| 20260905000025 | 57 | 256 | 3.0 | 6.0 | 0.00 | 0.00 | 0.00 | 90 | 1014.9 |
| 20260904235525 | 58 | 259 | 3.0 | 5.0 | 0.00 | 0.00 | 0.00 | 89 | 1014.8 |
| 20260904235026 | 58 | 276 | 3.0 | 7.0 | 0.00 | 0.00 | 0.00 | 90 | 1014.9 |
| 20260904234524 | 58 | 261 | 4.0 | 7.0 | 0.00 | 0.00 | 0.00 | 90 | 1014.9 |
| 20260904234024 | 58 | 258 | 3.0 | 5.0 | 0.00 | 0.00 | 0.00 | 89 | 1015.0 |
| 20260904233523 | 58 | 263 | 3.0 | 6.0 | 0.00 | 0.00 | 0.00 | 89 | 1014.9 |
| 20260904233023 | 58 | 246 | 3.0 | 6.0 | 0.00 | 0.00 | 0.00 | 89 | 1015.1 |
| 20260904232524 | 58 | 256 | 3.0 | 6.0 | 0.00 | 0.00 | 0.00 | 89 | 1015.0 |
| 20260904232024 | 58 | 245 | 3.0 | 6.0 | 0.00 | 0.00 | 0.00 | 89 | 1015.0 |
| 20260904231522 | 59 | 249 | 2.0 | 5.0 | 0.00 | 0.00 | 0.00 | 89 | 1014.9 |
| 20260904231024 | 59 | 244 | 2.0 | 5.0 | 0.00 | 0.00 | 0.00 | 88 | 1015.0 |
| 20260904230524 | 59 | 256 | 3.0 | 6.0 | 0.00 | 0.00 | 0.00 | 88 | 1014.9 |
| 20260904230041 | 59 | 255 | 4.0 | 6.0 | 0.00 | 0.00 | 0.00 | 88 | 1014.8 |
| 20260904225523 | 59 | 282 | 2.0 | 6.0 | 0.00 | 0.00 | 0.00 | 87 | 1014.8 |
| 20260904225023 | 60 | 245 | 2.0 | 6.0 | 0.00 | 0.00 | 0.00 | 86 | 1014.7 |
| 20260904224527 | 60 | 254 | 2.0 | 6.0 | 0.00 | 0.00 | 0.00 | 86 | 1014.7 |
| 20260904224021 | 60 | 249 | 2.0 | 6.0 | 0.00 | 0.00 | 0.00 | 86 | 1014.6 |
| 20260904223524 | 61 | 258 | 2.0 | 5.0 | 0.00 | 0.00 | 0.00 | 86 | 1014.6 |
| 20260904223020 | 61 | 259 | 1.0 | 5.0 | 0.00 | 0.00 | 0.00 | 85 | 1014.6 |
| 20260904222521 | 61 | 239 | 1.0 | 6.0 | 0.00 | 0.00 | 0.00 | 85 | 1014.6 |
| 20260904222020 | 61 | 229 | 2.0 | 6.0 | 0.00 | 0.00 | 0.00 | 85 | 1014.7 |
| 20260904221524 | 61 | 236 | 2.0 | 5.0 | 0.00 | 0.00 | 0.00 | 85 | 1014.6 |
| 20260904221020 | 61 | 247 | 2.0 | 5.0 | 0.00 | 0.00 | 0.00 | 84 | 1014.6 |
| 20260904220520 | 62 | 256 | 1.0 | 5.0 | 0.00 | 0.00 | 0.00 | 84 | 1014.6 |
| 20260904220020 | 62 | 232 | 2.0 | 5.0 | 0.00 | 0.00 | 0.00 | 84 | 1014.6 |
| 20260904215519 | 62 | 232 | 1.0 | 7.0 | 0.00 | 0.00 | 0.00 | 83 | 1014.6 |
| 20260904215019 | 62 | 243 | 2.0 | 5.0 | 0.00 | 0.00 | 0.00 | 84 | 1014.6 |
| 20260904214522 | 62 | 211 | 2.0 | 5.0 | 0.00 | 0.00 | 0.00 | 84 | 1014.6 |
| 20260904214021 | 62 | 207 | 1.0 | 4.0 | 0.00 | 0.00 | 0.00 | 84 | 1014.6 |
| 20260904213522 | 62 | 85 | 0.0 | 2.0 | 0.00 | 0.00 | 0.00 | 83 | 1014.5 |
| 20260904213021 | 62 | 99 | 0.0 | 1.0 | 0.00 | 0.00 | 0.00 | 83 | 1014.5 |
| 20260904212521 | 62 | 92 | 0.0 | 2.0 | 0.00 | 0.00 | 0.00 | 83 | 1014.5 |
| 20260904212021 | 62 | 95 | 0.0 | 2.0 | 0.00 | 0.00 | 0.00 | 82 | 1014.5 |
| 20260904211521 | 62 | 140 | 0.0 | 4.0 | 0.00 | 0.00 | 0.00 | 82 | 1014.6 |
| 20260904211019 | 63 | 102 | 0.0 | 3.0 | 0.00 | 0.00 | 0.00 | 82 | 1014.5 |
| 20260904210520 | 63 | 106 | 0.0 | 4.0 | 0.00 | 0.00 | 0.00 | 82 | 1014.6 |
| 20260904210020 | 63 | 118 | 0.0 | 4.0 | 0.00 | 0.00 | 0.00 | 81 | 1014.6 |
| 20260904205519 | 63 | 105 | 0.0 | 4.0 | 0.00 | 0.00 | 0.00 | 81 | 1014.6 |
| 20260904205018 | 63 | 83 | 0.0 | 2.0 | 0.00 | 0.00 | 0.00 | 81 | 1014.7 |
| 20260904204522 | 63 | 89 | 0.0 | 2.0 | 0.00 | 0.00 | 0.00 | 81 | 1014.7 |
| 20260904204019 | 63 | 89 | 0.0 | 2.0 | 0.00 | 0.00 | 0.00 | 81 | 1014.7 |
| 20260904203519 | 63 | 89 | 0.0 | 2.0 | 0.00 | 0.00 | 0.00 | 81 | 1014.7 |
| 20260904203019 | 63 | 104 | 0.0 | 0.0 | 0.00 | 0.00 | 0.00 | 81 | 1014.7 |
| 20260904202519 | 63 | 104 | 0.0 | 4.0 | 0.00 | 0.00 | 0.00 | 80 | 1014.7 |
| 20260904202019 | 63 | 143 | 0.0 | 2.0 | 0.00 | 0.00 | 0.00 | 80 | 1014.8 |
| 20260904201519 | 63 | 95 | 0.0 | 2.0 | 0.00 | 0.00 | 0.00 | 79 | 1014.8 |
| 20260904201018 | 63 | 93 | 0.0 | 5.0 | 0.00 | 0.00 | 0.00 | 79 | 1014.8 |
| 20260904200517 | 63 | 89 | 0.0 | 5.0 | 0.00 | 0.00 | 0.00 | 79 | 1014.9 |
| 20260904200017 | 63 | 106 | 1.0 | 4.0 | 0.00 | 0.00 | 0.00 | 79 | 1015.0 |
| 20260904195517 | 63 | 110 | 0.0 | 4.0 | 0.00 | 0.00 | 0.00 | 80 | 1015.0 |
| 20260904195017 | 64 | 95 | 0.0 | 2.0 | 0.00 | 0.00 | 0.00 | 80 | 1015.1 |
| 20260904194515 | 64 | 78 | 0.0 | 5.0 | 0.00 | 0.00 | 0.00 | 80 | 1015.1 |
| 20260904194017 | 64 | 69 | 0.0 | 5.0 | 0.00 | 0.00 | 0.00 | 80 | 1015.1 |
| 20260904193513 | 64 | 59 | 1.0 | 5.0 | 0.00 | 0.00 | 0.00 | 79 | 1015.1 |
| 20260904193032 | 64 | 178 | 0.0 | 3.0 | 0.00 | 0.00 | 0.00 | 79 | 1015.1 |
| 20260904192514 | 64 | 106 | 1.0 | 4.0 | 0.00 | 0.00 | 0.00 | 78 | 1015.0 |
| 20260904192014 | 64 | 106 | 1.0 | 4.0 | 0.00 | 0.00 | 0.00 | 78 | 1015.0 |
| 20260904191513 | 64 | 96 | 2.0 | 4.0 | 0.00 | 0.00 | 0.00 | 78 | 1014.9 |
| 20260904191014 | 64 | 191 | 1.0 | 4.0 | 0.00 | 0.00 | 0.00 | 79 | 1014.9 |
| 20260904190513 | 64 | 92 | 0.0 | 4.0 | 0.00 | 0.00 | 0.00 | 80 | 1015.0 |
| 20260904190027 | 64 | 179 | 1.0 | 6.0 | 0.00 | 0.00 | 0.00 | 80 | 1015.0 |
| 20260904185512 | 64 | 130 | 0.0 | 6.0 | 0.00 | 0.00 | 0.00 | 81 | 1015.0 |
| 20260904185013 | 64 | 187 | 0.0 | 5.0 | 0.00 | 0.00 | 0.00 | 82 | 1015.1 |
| 20260904184513 | 64 | 187 | 0.0 | 5.0 | 0.00 | 0.00 | 0.00 | 82 | 1015.1 |
| 20260904184012 | 64 | 91 | 1.0 | 6.0 | 0.00 | 0.00 | 0.00 | 82 | 1015.1 |
| 20260904183512 | 64 | 259 | 2.0 | 6.0 | 0.00 | 0.00 | 0.00 | 82 | 1015.1 |
| 20260904183012 | 64 | 97 | 1.0 | 5.0 | 0.00 | 0.00 | 0.00 | 83 | 1015.2 |
| 20260904182510 | 64 | 123 | 2.0 | 5.0 | 0.00 | 0.00 | 0.00 | 83 | 1015.2 |
| 20260904182010 | 64 | 71 | 1.0 | 4.0 | 0.00 | 0.00 | 0.00 | 83 | 1015.3 |
| 20260904181509 | 63 | 132 | 1.0 | 5.0 | 0.00 | 0.00 | 0.00 | 83 | 1015.3 |
| 20260904181009 | 63 | 89 | 2.0 | 6.0 | 0.00 | 0.00 | 0.00 | 84 | 1015.4 |
| 20260904180508 | 63 | 225 | 1.0 | 6.0 | 0.00 | 0.00 | 0.00 | 86 | 1015.5 |
| 20260904180007 | 63 | 104 | 1.0 | 6.0 | 0.00 | 0.00 | 0.00 | 86 | 1015.6 |
| 20260904175510 | 63 | 120 | 1.0 | 7.0 | 0.00 | 0.00 | 0.00 | 87 | 1015.6 |
| 20260904175009 | 63 | 160 | 2.0 | 6.0 | 0.00 | 0.00 | 0.00 | 86 | 1015.7 |
| 20260904174506 | 63 | 135 | 3.0 | 6.0 | 0.00 | 0.00 | 0.00 | 86 | 1015.8 |
| 20260904174007 | 63 | 133 | 1.0 | 5.0 | 0.00 | 0.00 | 0.00 | 85 | 1015.7 |
| 20260904173506 | 63 | 116 | 1.0 | 5.0 | 0.00 | 0.00 | 0.00 | 85 | 1015.7 |
| 20260904173006 | 64 | 89 | 2.0 | 5.0 | 0.00 | 0.00 | 0.00 | 84 | 1015.7 |
| 20260904172505 | 64 | 122 | 0.0 | 5.0 | 0.00 | 0.00 | 0.00 | 83 | 1015.7 |
| 20260904172005 | 64 | 122 | 1.0 | 6.0 | 0.00 | 0.00 | 0.00 | 83 | 1015.7 |
| 20260904171504 | 64 | 131 | 1.0 | 6.0 | 0.00 | 0.00 | 0.00 | 83 | 1015.7 |
| 20260904171005 | 64 | 96 | 1.0 | 5.0 | 0.00 | 0.00 | 0.00 | 84 | 1015.7 |
| 20260904170504 | 64 | 76 | 0.0 | 5.0 | 0.00 | 0.00 | 0.00 | 84 | 1015.8 |
| 20260904170003 | 64 | 75 | 1.0 | 4.0 | 0.00 | 0.00 | 0.00 | 84 | 1016.0 |
| 20260904165503 | 64 | 97 | 1.0 | 4.0 | 0.00 | 0.00 | 0.00 | 84 | 1016.0 |
| 20260904165003 | 64 | 93 | 0.0 | 4.0 | 0.00 | 0.00 | 0.00 | 85 | 1015.9 |
| 20260904164503 | 64 | 98 | 1.0 | 4.0 | 0.00 | 0.00 | 0.00 | 85 | 1015.9 |
| 20260904164002 | 63 | 66 | 1.0 | 4.0 | 0.00 | 0.00 | 0.00 | 87 | 1016.0 |
| 20260904163502 | 63 | 103 | 1.0 | 4.0 | 0.00 | 0.00 | 0.00 | 87 | 1016.0 |
| 20260904163004 | 62 | 99 | 0.0 | 1.0 | 0.00 | 0.00 | 0.00 | 87 | 1016.1 |
| 20260904162502 | 62 | 99 | 0.0 | 2.0 | 0.00 | 0.00 | 0.00 | 88 | 1016.2 |
| 20260904162002 | 62 | 99 | 0.0 | 4.0 | 0.00 | 0.00 | 0.00 | 88 | 1016.2 |
| 20260904161603 | 62 | 99 | 1.0 | 3.0 | 0.00 | 0.00 | 0.00 | 88 | 1016.3 |
| 20260904161100 | 62 | 87 | 0.0 | 4.0 | 0.00 | 0.00 | 0.00 | 87 | 1016.3 |
| 20260904160601 | 62 | 114 | 1.0 | 6.0 | 0.00 | 0.00 | 0.00 | 87 | 1016.4 |
| 20260904160108 | 62 | 159 | 0.0 | 7.0 | 0.00 | 0.00 | 0.00 | 86 | 1016.5 |
| 20260904155559 | 62 | 204 | 1.0 | 7.0 | 0.00 | 0.00 | 0.00 | 86 | 1016.4 |
| 20260904155059 | 62 | 122 | 0.0 | 5.0 | 0.00 | 0.00 | 0.00 | 85 | 1016.3 |
| 20260904154100 | 63 | 164 | 0.0 | 4.0 | 0.00 | 0.00 | 0.00 | 84 | 1016.3 |
| 20260904153559 | 63 | 175 | 1.0 | 4.0 | 0.00 | 0.00 | 0.00 | 84 | 1016.3 |
| 20260904153107 | 63 | 92 | 1.0 | 4.0 | 0.00 | 0.00 | 0.00 | 84 | 1016.3 |
| 20260904152558 | 63 | 123 | 0.0 | 4.0 | 0.00 | 0.00 | 0.00 | 84 | 1016.5 |
| 20260904152057 | 63 | 64 | 0.0 | 4.0 | 0.00 | 0.00 | 0.00 | 84 | 1016.5 |
| 20260904151557 | 63 | 93 | 1.0 | 4.0 | 0.00 | 0.00 | 0.00 | 84 | 1016.6 |
| 20260904151100 | 63 | 95 | 1.0 | 4.0 | 0.00 | 0.00 | 0.00 | 85 | 1016.6 |
| 20260904150557 | 63 | 137 | 1.0 | 3.0 | 0.00 | 0.00 | 0.00 | 85 | 1016.6 |
| 20260904150106 | 62 | 118 | 0.0 | 4.0 | 0.00 | 0.00 | 0.00 | 85 | 1016.6 |
| 20260904145557 | 63 | 88 | 1.0 | 3.0 | 0.00 | 0.00 | 0.00 | 85 | 1016.6 |
| 20260904145056 | 63 | 85 | 1.0 | 5.0 | 0.00 | 0.00 | 0.00 | 85 | 1016.6 |
| 20260904144156 | 63 | 76 | 3.0 | 7.0 | 0.00 | 0.00 | 0.00 | 84 | 1016.8 |
| 20260904143556 | 63 | 79 | 2.0 | 6.0 | 0.00 | 0.00 | 0.00 | 85 | 1016.8 |
| 20260904143055 | 64 | 83 | 3.0 | 6.0 | 0.00 | 0.00 | 0.00 | 84 | 1016.8 |
| 20260904142554 | 64 | 51 | 3.0 | 6.0 | 0.00 | 0.00 | 0.00 | 83 | 1016.7 |
| 20260904142054 | 64 | 51 | 3.0 | 6.0 | 0.00 | 0.00 | 0.00 | 83 | 1016.8 |
| 20260904141555 | 64 | 70 | 1.0 | 5.0 | 0.00 | 0.00 | 0.00 | 84 | 1016.9 |
| 20260904141051 | 64 | 82 | 2.0 | 5.0 | 0.00 | 0.00 | 0.00 | 84 | 1016.9 |
| 20260904140551 | 63 | 72 | 2.0 | 5.0 | 0.00 | 0.00 | 0.00 | 84 | 1016.9 |
| 20260904140103 | 63 | 103 | 0.0 | 4.0 | 0.00 | 0.00 | 0.00 | 84 | 1017.0 |
| 20260904135554 | 64 | 100 | 2.0 | 6.0 | 0.00 | 0.00 | 0.00 | 84 | 1017.0 |
| 20260904135049 | 64 | 50 | 2.0 | 6.0 | 0.00 | 0.00 | 0.00 | 82 | 1017.0 |
| 20260904134054 | 65 | 99 | 0.0 | 5.0 | 0.00 | 0.00 | 0.00 | 80 | 1017.1 |
| 20260904133554 | 65 | 63 | 1.0 | 5.0 | 0.00 | 0.00 | 0.00 | 79 | 1017.1 |
| 20260904133053 | 65 | 10 | 2.0 | 5.0 | 0.00 | 0.00 | 0.00 | 79 | 1017.1 |
| 20260904132551 | 64 | 233 | 0.0 | 4.0 | 0.00 | 0.00 | 0.00 | 81 | 1017.2 |
| 20260904132053 | 64 | 211 | 0.0 | 6.0 | 0.00 | 0.00 | 0.00 | 80 | 1017.3 |
| 20260904131549 | 63 | 218 | 1.0 | 6.0 | 0.00 | 0.00 | 0.00 | 82 | 1017.4 |
| 20260904131049 | 63 | 226 | 1.0 | 6.0 | 0.00 | 0.00 | 0.00 | 82 | 1017.4 |
| 20260904130549 | 63 | 245 | 2.0 | 6.0 | 0.00 | 0.00 | 0.00 | 83 | 1017.4 |
| 20260904130101 | 63 | 270 | 1.0 | 6.0 | 0.00 | 0.00 | 0.00 | 83 | 1017.4 |
| 20260904125552 | 63 | 276 | 2.0 | 7.0 | 0.00 | 0.00 | 0.00 | 83 | 1017.4 |
| 20260904125051 | 63 | 269 | 4.0 | 8.0 | 0.00 | 0.00 | 0.00 | 83 | 1017.4 |
| 20260904124044 | 63 | 270 | 3.0 | 8.0 | 0.00 | 0.00 | 0.00 | 83 | 1017.4 |
| 20260904123547 | 63 | 233 | 4.0 | 8.0 | 0.00 | 0.00 | 0.00 | 83 | 1017.4 |
| 20260904123043 | 63 | 228 | 1.0 | 8.0 | 0.00 | 0.00 | 0.00 | 84 | 1017.4 |
| 20260904122543 | 63 | 277 | 4.0 | 8.0 | 0.00 | 0.00 | 0.00 | 85 | 1017.5 |
| 20260904122043 | 63 | 222 | 0.0 | 4.0 | 0.00 | 0.00 | 0.00 | 86 | 1017.4 |
| 20260904121540 | 62 | 241 | 0.0 | 4.0 | 0.00 | 0.00 | 0.00 | 86 | 1017.5 |
| 20260904121043 | 62 | 255 | 1.0 | 6.0 | 0.00 | 0.00 | 0.00 | 86 | 1017.6 |
| 20260904120538 | 62 | 248 | 2.0 | 6.0 | 0.00 | 0.00 | 0.00 | 87 | 1017.6 |
| 20260904120043 | 61 | 228 | 1.0 | 5.0 | 0.00 | 0.00 | 0.00 | 88 | 1017.7 |
| 20260904115536 | 61 | 190 | 1.0 | 5.0 | 0.00 | 0.00 | 0.00 | 88 | 1017.8 |
| 20260904115035 | 61 | 203 | 0.0 | 6.0 | 0.00 | 0.00 | 0.00 | 89 | 1017.8 |
| 20260904114036 | 60 | 259 | 0.0 | 3.0 | 0.00 | 0.00 | 0.00 | 90 | 1017.9 |
| 20260904113536 | 60 | 256 | 0.0 | 5.0 | 0.00 | 0.00 | 0.00 | 91 | 1018.0 |
| 20260904113037 | 60 | 264 | 1.0 | 6.0 | 0.00 | 0.00 | 0.00 | 91 | 1017.9 |
| 20260904112532 | 60 | 199 | 0.0 | 5.0 | 0.00 | 0.00 | 0.00 | 91 | 1018.0 |
| 20260904112034 | 59 | 214 | 1.0 | 5.0 | 0.00 | 0.00 | 0.00 | 91 | 1018.0 |
| 20260904111530 | 59 | 213 | 0.0 | 5.0 | 0.00 | 0.00 | 0.00 | 92 | 1018.1 |
| 20260904111029 | 59 | 228 | 1.0 | 6.0 | 0.00 | 0.00 | 0.00 | 92 | 1018.0 |
| 20260904110530 | 59 | 266 | 0.0 | 6.0 | 0.00 | 0.00 | 0.00 | 93 | 1018.0 |
| 20260904110028 | 59 | 253 | 1.0 | 6.0 | 0.00 | 0.00 | 0.00 | 93 | 1018.1 |
| 20260904105527 | 58 | 249 | 2.0 | 6.0 | 0.00 | 0.00 | 0.00 | 93 | 1018.1 |
| 20260904105026 | 58 | 216 | 2.0 | 5.0 | 0.00 | 0.00 | 0.00 | 93 | 1018.2 |
| 20260904104026 | 58 | 257 | 3.0 | 8.0 | 0.00 | 0.00 | 0.00 | 94 | 1018.2 |
| 20260904103525 | 58 | 243 | 3.0 | 6.0 | 0.00 | 0.00 | 0.00 | 94 | 1018.2 |
| 20260904103024 | 57 | 261 | 1.0 | 4.0 | 0.00 | 0.00 | 0.00 | 94 | 1018.2 |
| 20260904102524 | 57 | 243 | 0.0 | 2.0 | 0.00 | 0.00 | 0.00 | 94 | 1018.2 |